Flag for U.S.A. Weather past 2 weeks in Independence, Missouri, U.S.A.

Now
75 °F

Clear.


Feels Like: 74 °F
Forecast: 74 / 87 °F
Wind: 7 mph from East

Location: Lee's Summit Municipal Airport

Current Time: Aug 28, 2014 at 2:52:25 AM

Latest Report: Aug 28, 2014 at 1:53 AM


Visibility: 10 mi

Pressure: 29.98 "Hg

Humidity: 90%

Dew point: 72 °F

Location of IndependenceLocation

Historic Weather in Independence — Graph

°F

Independence temperature yesterday

Maximum temperature yesterday: 85 °F (at 3:53 PM)
Minimum temperature yesterday: 73 °F (at 3:53 AM)
Average temperature yesterday: 79 °F

Past Weeks' High & Low Weather Summary

 TemperatureHumidityPressure
High96 °F (Aug 23, 4:53 PM)97% (Aug 13, 6:53 AM)30.16 "Hg (Aug 13, 6:53 AM)
Low58 °F (Aug 13, 5:53 AM)34% (Aug 23, 5:53 PM)29.72 "Hg (Aug 19, 5:53 AM)
Average79 °F70%29.93 "Hg
* Reported Aug 13 12:53 AM — Aug 28 12:53 AM, Independence, Weather by CustomWeather, © 2014

Note: Actual official high and low records may vary slightly from our data, if they occured in-between our weather recording intervals... More about our weather records

Advertising

Independence weather history for previous 24 hours

 ConditionsComfort  
Time TempWeatherWind HumidityBarometerVisibility
12:53 AM
Aug 28
76 °FPassing clouds.6 mph88%30.01 "Hg10 mi
11:53 PM
Aug 27
77 °FClear.6 mph85%30.02 "Hg10 mi
10:53 PM78 °FPassing clouds.5 mph82%30.02 "Hg10 mi
9:53 PM78 °FClear.5 mph82%30.03 "Hg10 mi
8:53 PM78 °FSunny.6 mph82%30.03 "Hg10 mi
7:53 PM80 °FSunny.6 mph76%30.02 "Hg10 mi
6:53 PM81 °FSunny.5 mph74%30.01 "Hg10 mi
5:53 PM84 °FSunny.12 mph67%30.01 "Hg10 mi
4:53 PM85 °FSunny.12 mph65%30.02 "Hg10 mi
3:53 PM85 °FScattered clouds.12 mph68%30.05 "Hg10 mi
2:53 PM84 °FPassing clouds.10 mph65%30.07 "Hg10 mi
1:53 PM84 °FSunny.9 mph65%30.09 "Hg10 mi
12:53 PM83 °FSunny.12 mph68%30.11 "Hg10 mi
11:53 AM81 °FPassing clouds.7 mph74%30.11 "Hg10 mi
10:53 AM80 °FSunny.9 mph74%30.11 "Hg10 mi
9:53 AM79 °FPassing clouds.12 mph77%30.10 "Hg10 mi
8:53 AM77 °FSunny.9 mph82%30.09 "Hg10 mi
7:53 AM74 °FPassing clouds.5 mph82%30.07 "Hg10 mi
6:53 AM73 °FClear.5 mph88%30.06 "Hg10 mi
5:53 AM73 °FClear.3 mph94%30.04 "Hg10 mi
4:53 AM73 °FClear.6 mph97%30.03 "Hg9 mi
3:53 AM73 °FClear.5 mph97%30.06 "Hg10 mi
2:53 AM75 °FClear.7 mph90%30.06 "Hg10 mi
Weather by CustomWeather, © 2014

See weather overviewHow to use our weather pages